Regional Weather Roundup
Issued by NWS

Home | Current Version | Previous Version | Graphics & Text | Print | Product List | Glossary On
Versions: 1 2 3 4 5 6 7 8 9 10 11 12 13 14 15 16 17 18 19 20 21 22 23 24 25 26 27 28 29 30 31 32 33 34 35 36 37 38 39 40 41 42 43 44 45 46 47 48 49 50
393
ASUS45 KCYS 240610
RWRWY

WYOMING REGIONAL WEATHER ROUNDUP
NATIONAL WEATHER SERVICE CHEYENNE WY
1100 PM MST MON JAN 23 2017

NOTE:  "FAIR" INDICATES FEW OR NO CLOUDS BELOW 12,000 FEET
WITH NO SIGNIFICANT WEATHER AND/OR OBSTRUCTIONS TO VISIBILITY.

WYZ001-240700-
YELLOWSTONE NATIONAL PARK

CITY           SKY/WX    TMP DP  RH WIND       PRES   REMARKS
LK YELLOWSTONE   N/A     18  12  77 CALM      29.50R
6HR MIN TEMP:  18; 6HR MAX TEMP:  22;

W YELLOWSTONE  NOT AVBL

$$
WYZ002>013-054>058-071-098>099-240700-
NORTHERN WYOMING

CITY           SKY/WX    TMP DP  RH WIND       PRES   REMARKS
JACKSON        CLOUDY    25  25 100 N15       29.45R WCI  12
CODY           LGT SNOW  20  16  84 NW16G24   29.66R FOG     WCI   6
GREYBULL       MOCLDY    23  18  81 NW10      29.65R WCI  12
6HR MIN TEMP:  21; 6HR MAX TEMP:  25;

WORLAND        LGT SNOW  22  21  96 NW6       29.65S VSB 1   WCI  14
6HR MIN TEMP:  22; 6HR MAX TEMP:  27; 6HR PCP:  0.01;

SHERIDAN       CLOUDY    19  17  92 NW5       29.75R WCI  12
6HR MIN TEMP:  18; 6HR MAX TEMP:  20;

BUFFALO        FOG       19  15  84 N15G23    29.68R VSB 3/4 WCI   5
6HR MIN TEMP:  17; 6HR MAX TEMP:  24; 6HR PCP: TRACE;

GILLETTE       FOG       15  15 100 N10       29.72R VSB 1/2 WCI   2
6HR MIN TEMP:  15; 6HR MAX TEMP:  24;

HULETT         FOG       19  18  93 MISG      29.69F VSB<1/4
NEWCASTLE      MOCLDY    23  23 100 S6        29.64R WCI  16

$$
WYZ014>020-022>026-101>103-240700-
CENTRAL WYOMING

CITY           SKY/WX    TMP DP  RH WIND       PRES   REMARKS
BIG PINEY      LGT SNOW  21  19  92 N7        29.44S FOG     WCI  12
6HR MIN TEMP:  20; 6HR MAX TEMP:  21; 6HR PCP:  0.03;

PINEDALE       LGT SNOW  23  21  93 SE13      29.45S VSB 3/4 WCI  11
DUBOIS         NOT AVBL
LANDER         SNOW      23  22  96 NW9       29.55S VSB 1/2 WCI  13
6HR MIN TEMP:  23; 6HR MAX TEMP:  26; 6HR PCP:  0.39;

RIVERTON       SNOW      22  21  96 NE13      29.56R VSB 1/2 WCI  10
6HR MIN TEMP:  22; 6HR MAX TEMP:  24; 6HR PCP:  0.34;

CASPER         FOG       21  19  92 NE18G26   29.56R VSB 3/4 WCI   6
6HR MIN TEMP:  21; 6HR MAX TEMP:  32; 6HR PCP:  0.07;

DOUGLAS        LGT SNOW  25  22  88 NE8       29.59F FOG     WCI  16
6HR MIN TEMP:  25; 6HR MAX TEMP:  35; 6HR PCP: TRACE;


$$
WYZ021-027>030-104>119-240700-
SOUTHERN WYOMING

CITY           SKY/WX    TMP DP  RH WIND       PRES   REMARKS
EVANSTON       FAIR      17  13  84 SW18      29.52R WCI   1
6HR MIN TEMP:  17; 6HR MAX TEMP:  25; 6HR PCP: TRACE;

FORT BRIDGER   PTCLDY    21  19  93 W23       29.53  WCI   5
ROCK SPRINGS   CLOUDY    23  17  78 W18       29.50R WCI   9
6HR MIN TEMP:  23; 6HR MAX TEMP:  30; 6HR PCP: TRACE;

RAWLINS        FAIR      26  18  71 SW16      29.48F WCI  14
6HR MIN TEMP:  26; 6HR MAX TEMP:  33; 6HR PCP: TRACE;

LARAMIE        FAIR      22  12  65 S9        29.50S WCI  12
6HR MIN TEMP:  20; 6HR MAX TEMP:  30; 6HR PCP:  0.07;

CHEYENNE       CLOUDY    30  29  96 SE9       29.53F WCI  22
6HR MIN TEMP:  30; 6HR MAX TEMP:  37; 6HR PCP:  0.10;

TORRINGTON     LGT SNOW  28  26  92 N7        29.60R VSB 3/4 WCI  21
6HR MIN TEMP:  29; 6HR MAX TEMP:  40; 6HR PCP: TRACE;


$$




USA.gov is the U.S. government's official web portal to all federal, state and local government web resources and services.